Time,TemperatureF,DewpointF,PressureIn,WindDirection,WindDirectionDegrees,WindSpeedMPH,WindSpeedGustMPH,Humidity,HourlyPrecipIn,Conditions,Clouds,dailyrainin,SoftwareType,DateUTC
2013-04-08 00:13:00,61.3,53.0,29.82,South,188,3.0,-999.0,75,-99.99,,,0.00,weatherlink.com 1.10,2013-04-08 05:13:00,
2013-04-08 00:28:00,61.2,53.0,29.82,SSW,194,5.0,-999.0,75,-99.99,,,0.00,weatherlink.com 1.10,2013-04-08 05:28:00,
2013-04-08 00:43:00,61.3,53.0,29.81,South,186,3.0,-999.0,75,-99.99,,,0.00,weatherlink.com 1.10,2013-04-08 05:43:00,
2013-04-08 00:58:00,61.5,54.0,29.81,South,186,4.0,-999.0,75,-99.99,,,0.00,weatherlink.com 1.10,2013-04-08 05:58:00,
2013-04-08 01:13:00,61.6,54.0,29.81,SSW,198,8.0,-999.0,75,-99.99,,,0.00,weatherlink.com 1.10,2013-04-08 06:13:00,
2013-04-08 01:28:00,61.5,54.0,29.81,SSW,193,4.0,-999.0,75,-99.99,,,0.00,weatherlink.com 1.10,2013-04-08 06:28:00,
2013-04-08 01:44:00,61.4,53.0,29.81,South,185,6.0,-999.0,75,-99.99,,,0.00,weatherlink.com 1.10,2013-04-08 06:44:00,
2013-04-08 01:58:00,61.5,54.0,29.80,SSW,213,5.0,-999.0,75,-99.99,,,0.00,weatherlink.com 1.10,2013-04-08 06:58:00,
2013-04-08 02:13:00,61.3,53.0,29.80,South,177,9.0,-999.0,75,-99.99,,,0.00,weatherlink.com 1.10,2013-04-08 07:13:00,
2013-04-08 02:28:00,61.1,54.0,29.79,SSW,202,3.0,-999.0,76,-99.99,,,0.00,weatherlink.com 1.10,2013-04-08 07:28:00,
2013-04-08 02:43:00,60.9,53.0,29.79,SSW,207,5.0,-999.0,76,-99.99,,,0.00,weatherlink.com 1.10,2013-04-08 07:43:00,
2013-04-08 02:58:00,60.5,53.0,29.79,SSW,213,4.0,-999.0,76,-99.99,,,0.00,weatherlink.com 1.10,2013-04-08 07:58:00,
2013-04-08 03:13:00,60.4,53.0,29.79,SW,218,0.0,-999.0,76,-99.99,,,0.00,weatherlink.com 1.10,2013-04-08 08:13:00,
2013-04-08 03:28:00,60.3,53.0,29.78,SSW,205,4.0,-999.0,76,-99.99,,,0.00,weatherlink.com 1.10,2013-04-08 08:28:00,
2013-04-08 03:43:00,60.4,53.0,29.78,SSW,198,5.0,-999.0,76,-99.99,,,0.00,weatherlink.com 1.10,2013-04-08 08:43:00,
2013-04-08 03:58:00,60.3,53.0,29.78,SW,227,0.0,-999.0,76,-99.99,,,0.00,weatherlink.com 1.10,2013-04-08 08:58:00,
2013-04-08 04:13:00,60.4,53.0,29.79,South,189,8.0,-999.0,76,-99.99,,,0.00,weatherlink.com 1.10,2013-04-08 09:13:00,
2013-04-08 04:28:00,60.2,53.0,29.78,SSW,209,0.0,-999.0,76,-99.99,,,0.00,weatherlink.com 1.10,2013-04-08 09:28:00,
2013-04-08 04:43:00,60.1,52.0,29.79,SW,216,0.0,-999.0,75,-99.99,,,0.00,weatherlink.com 1.10,2013-04-08 09:43:00,
2013-04-08 04:58:00,60.0,52.0,29.79,SSW,192,0.0,-999.0,75,-99.99,,,0.00,weatherlink.com 1.10,2013-04-08 09:58:00,
2013-04-08 05:13:00,59.8,52.0,29.79,SSW,197,0.0,-999.0,75,-99.99,,,0.00,weatherlink.com 1.10,2013-04-08 10:13:00,
2013-04-08 05:28:00,59.6,51.0,29.79,South,186,6.0,-999.0,74,-99.99,,,0.00,weatherlink.com 1.10,2013-04-08 10:28:00,
2013-04-08 05:43:00,59.4,51.0,29.79,SSW,194,0.0,-999.0,74,-99.99,,,0.00,weatherlink.com 1.10,2013-04-08 10:43:00,
2013-04-08 05:58:00,59.3,51.0,29.79,SSW,192,0.0,-999.0,74,-99.99,,,0.00,weatherlink.com 1.10,2013-04-08 10:58:00,
2013-04-08 06:13:00,59.1,51.0,29.80,SSW,207,2.0,-999.0,74,-99.99,,,0.00,weatherlink.com 1.10,2013-04-08 11:13:00,
2013-04-08 06:28:00,59.0,51.0,29.80,SSW,192,6.0,-999.0,74,-99.99,,,0.00,weatherlink.com 1.10,2013-04-08 11:28:00,
2013-04-08 06:43:00,58.8,51.0,29.78,South,180,9.0,-999.0,74,-99.99,,,0.00,weatherlink.com 1.10,2013-04-08 11:43:00,
2013-04-08 06:58:00,58.5,50.0,29.79,SW,221,10.0,-999.0,73,-99.99,,,0.00,weatherlink.com 1.10,2013-04-08 11:58:00,
2013-04-08 07:13:00,58.4,50.0,29.79,South,184,6.0,-999.0,73,-99.99,,,0.00,weatherlink.com 1.10,2013-04-08 12:13:00,
2013-04-08 07:28:00,58.6,50.0,29.80,SSW,210,13.0,-999.0,74,-99.99,,,0.00,weatherlink.com 1.10,2013-04-08 12:28:00,
2013-04-08 07:43:00,58.9,51.0,29.81,SSW,210,9.0,-999.0,74,-99.99,,,0.00,weatherlink.com 1.10,2013-04-08 12:43:00,
2013-04-08 07:58:00,58.9,51.0,29.82,SW,218,13.0,-999.0,74,-99.99,,,0.00,weatherlink.com 1.10,2013-04-08 12:58:00,
2013-04-08 08:13:00,59.0,51.0,29.83,SW,232,3.0,-999.0,74,-99.99,,,0.00,weatherlink.com 1.10,2013-04-08 13:13:00,
2013-04-08 08:28:00,58.9,51.0,29.84,SSW,193,4.0,-999.0,74,-99.99,,,0.00,weatherlink.com 1.10,2013-04-08 13:28:00,
2013-04-08 08:43:00,58.8,50.0,29.85,SSW,205,4.0,-999.0,73,-99.99,,,0.00,weatherlink.com 1.10,2013-04-08 13:43:00,
2013-04-08 08:58:00,58.9,50.0,29.85,South,186,0.0,-999.0,73,-99.99,,,0.00,weatherlink.com 1.10,2013-04-08 13:58:00,
2013-04-08 09:13:00,59.1,50.0,29.85,South,185,4.0,-999.0,73,-99.99,,,0.00,weatherlink.com 1.10,2013-04-08 14:13:00,
2013-04-08 09:28:00,59.0,50.0,29.85,South,182,5.0,-999.0,72,-99.99,,,0.00,weatherlink.com 1.10,2013-04-08 14:28:00,
2013-04-08 09:43:00,58.8,49.0,29.85,South,174,6.0,-999.0,69,-99.99,,,0.00,weatherlink.com 1.10,2013-04-08 14:43:00,
2013-04-08 09:58:00,58.0,46.0,29.85,South,174,11.0,-999.0,65,-99.99,,,0.00,weatherlink.com 1.10,2013-04-08 14:58:00,
2013-04-08 10:13:00,57.4,45.0,29.86,South,175,8.0,-999.0,63,-99.99,,,0.00,weatherlink.com 1.10,2013-04-08 15:13:00,
2013-04-08 10:28:00,57.2,44.0,29.86,South,174,8.0,-999.0,62,-99.99,,,0.00,weatherlink.com 1.10,2013-04-08 15:28:00,
2013-04-08 10:43:00,57.3,44.0,29.87,South,172,4.0,-999.0,62,-99.99,,,0.00,weatherlink.com 1.10,2013-04-08 15:43:00,
2013-04-08 10:58:00,57.3,44.0,29.87,SSE,161,0.0,-999.0,62,-99.99,,,0.00,weatherlink.com 1.10,2013-04-08 15:58:00,
2013-04-08 11:13:00,57.5,44.0,29.87,South,177,9.0,-999.0,62,-99.99,,,0.00,weatherlink.com 1.10,2013-04-08 16:13:00,
2013-04-08 11:28:00,57.7,45.0,29.86,South,174,7.0,-999.0,63,-99.99,,,0.00,weatherlink.com 1.10,2013-04-08 16:28:00,
2013-04-08 11:43:00,57.7,45.0,29.86,South,180,10.0,-999.0,63,-99.99,,,0.00,weatherlink.com 1.10,2013-04-08 16:43:00,
2013-04-08 11:58:00,57.9,45.0,29.86,South,169,2.0,-999.0,63,-99.99,,,0.00,weatherlink.com 1.10,2013-04-08 16:58:00,
2013-04-08 12:13:00,58.2,46.0,29.86,South,173,7.0,-999.0,64,-99.99,,,0.00,weatherlink.com 1.10,2013-04-08 17:13:00,
2013-04-08 12:28:00,58.1,46.0,29.85,SSE,168,12.0,-999.0,64,-99.99,,,0.00,weatherlink.com 1.10,2013-04-08 17:28:00,
2013-04-08 12:43:00,58.4,46.0,29.84,SSE,168,0.0,-999.0,64,-99.99,,,0.00,weatherlink.com 1.10,2013-04-08 17:43:00,
2013-04-08 12:58:00,58.5,46.0,29.84,SSE,163,6.0,-999.0,64,-99.99,,,0.00,weatherlink.com 1.10,2013-04-08 17:58:00,
2013-04-08 13:13:00,58.9,47.0,29.83,SSE,162,10.0,-999.0,65,-99.99,,,0.00,weatherlink.com 1.10,2013-04-08 18:13:00,
2013-04-08 13:28:00,59.9,48.0,29.83,SSW,198,0.0,-999.0,65,-99.99,,,0.00,weatherlink.com 1.10,2013-04-08 18:28:00,
2013-04-08 13:43:00,61.7,49.0,29.82,SSE,163,1.0,-999.0,63,-99.99,,,0.00,weatherlink.com 1.10,2013-04-08 18:43:00,
2013-04-08 13:58:00,62.9,53.0,29.82,South,180,0.0,-999.0,69,-99.99,,,0.00,weatherlink.com 1.10,2013-04-08 18:58:00,
2013-04-08 14:13:00,64.4,56.0,29.81,South,173,0.0,-999.0,73,-99.99,,,0.00,weatherlink.com 1.10,2013-04-08 19:13:00,
2013-04-08 14:28:00,65.2,57.0,29.81,South,169,0.0,-999.0,74,-99.99,,,0.00,weatherlink.com 1.10,2013-04-08 19:28:00,
2013-04-08 14:43:00,65.8,57.0,29.80,SE,136,2.0,-999.0,74,-99.99,,,0.00,weatherlink.com 1.10,2013-04-08 19:43:00,
2013-04-08 14:58:00,66.5,58.0,29.79,ESE,112,0.0,-999.0,74,-99.99,,,0.00,weatherlink.com 1.10,2013-04-08 19:58:00,
2013-04-08 15:13:00,66.7,58.0,29.78,SE,136,0.0,-999.0,74,-99.99,,,0.00,weatherlink.com 1.10,2013-04-08 20:13:00,
2013-04-08 15:28:00,68.2,59.0,29.77,South,182,0.0,-999.0,72,-99.99,,,0.00,weatherlink.com 1.10,2013-04-08 20:28:00,
2013-04-08 15:43:00,69.3,59.0,29.77,SE,146,19.0,-999.0,69,-99.99,,,0.00,weatherlink.com 1.10,2013-04-08 20:43:00,
2013-04-08 15:58:00,70.3,59.0,29.77,South,179,0.0,-999.0,67,-99.99,,,0.00,weatherlink.com 1.10,2013-04-08 20:58:00,
2013-04-08 16:13:00,70.7,58.0,29.77,South,188,7.0,-999.0,64,-99.99,,,0.00,weatherlink.com 1.10,2013-04-08 21:13:00,
2013-04-08 16:28:00,71.2,58.0,29.76,South,188,0.0,-999.0,63,-99.99,,,0.00,weatherlink.com 1.10,2013-04-08 21:28:00,
2013-04-08 16:43:00,71.0,58.0,29.76,SSE,163,2.0,-999.0,63,-99.99,,,0.00,weatherlink.com 1.10,2013-04-08 21:43:00,
2013-04-08 16:58:00,72.0,57.0,29.75,South,178,8.0,-999.0,60,-99.99,,,0.00,weatherlink.com 1.10,2013-04-08 21:58:00,
2013-04-08 17:13:00,72.5,58.0,29.75,South,181,9.0,-999.0,60,-99.99,,,0.00,weatherlink.com 1.10,2013-04-08 22:13:00,
2013-04-08 17:28:00,72.7,58.0,29.75,South,177,2.0,-999.0,60,-99.99,,,0.00,weatherlink.com 1.10,2013-04-08 22:28:00,
2013-04-08 17:43:00,72.5,58.0,29.75,South,173,6.0,-999.0,60,-99.99,,,0.00,weatherlink.com 1.10,2013-04-08 22:43:00,
2013-04-08 17:58:00,72.0,57.0,29.76,SSW,197,3.0,-999.0,60,-99.99,,,0.00,weatherlink.com 1.10,2013-04-08 22:58:00,
2013-04-08 18:13:00,71.4,58.0,29.76,South,180,3.0,-999.0,62,-99.99,,,0.00,weatherlink.com 1.10,2013-04-08 23:13:00,
2013-04-08 18:28:00,71.1,58.0,29.77,South,186,4.0,-999.0,63,-99.99,,,0.00,weatherlink.com 1.10,2013-04-08 23:28:00,
2013-04-08 18:43:00,71.0,58.0,29.77,South,170,0.0,-999.0,63,-99.99,,,0.00,weatherlink.com 1.10,2013-04-08 23:43:00,
2013-04-08 18:58:00,70.6,58.0,29.77,South,188,0.0,-999.0,64,-99.99,,,0.00,weatherlink.com 1.10,2013-04-08 23:58:00,
2013-04-08 19:13:00,70.2,58.0,29.77,South,169,9.0,-999.0,65,-99.99,,,0.00,weatherlink.com 1.10,2013-04-09 00:13:00,
2013-04-08 19:28:00,70.1,58.0,29.77,South,171,7.0,-999.0,66,-99.99,,,0.00,weatherlink.com 1.10,2013-04-09 00:28:00,
2013-04-08 19:43:00,69.7,58.0,29.77,South,175,0.0,-999.0,66,-99.99,,,0.00,weatherlink.com 1.10,2013-04-09 00:43:00,
2013-04-08 19:58:00,69.8,58.0,29.77,South,172,5.0,-999.0,66,-99.99,,,0.00,weatherlink.com 1.10,2013-04-09 00:58:00,
2013-04-08 20:13:00,69.7,58.0,29.77,SSE,167,5.0,-999.0,66,-99.99,,,0.00,weatherlink.com 1.10,2013-04-09 01:13:00,
2013-04-08 20:28:00,69.8,58.0,29.77,South,171,8.0,-999.0,66,-99.99,,,0.00,weatherlink.com 1.10,2013-04-09 01:28:00,
2013-04-08 20:43:00,69.6,58.0,29.77,SE,144,4.0,-999.0,66,-99.99,,,0.00,weatherlink.com 1.10,2013-04-09 01:43:00,
2013-04-08 20:58:00,69.6,58.0,29.77,South,182,4.0,-999.0,66,-99.99,,,0.00,weatherlink.com 1.10,2013-04-09 01:58:00,
2013-04-08 21:13:00,69.5,58.0,29.78,SSE,161,0.0,-999.0,67,-99.99,,,0.00,weatherlink.com 1.10,2013-04-09 02:13:00,
2013-04-08 21:28:00,69.3,58.0,29.79,SSE,156,6.0,-999.0,68,-99.99,,,0.00,weatherlink.com 1.10,2013-04-09 02:28:00,
2013-04-08 21:43:00,68.5,58.0,29.79,SSE,165,2.0,-999.0,69,-99.99,,,0.00,weatherlink.com 1.10,2013-04-09 02:43:00,
2013-04-08 21:58:00,68.2,58.0,29.79,SSE,165,6.0,-999.0,70,-99.99,,,0.00,weatherlink.com 1.10,2013-04-09 02:58:00,
2013-04-08 22:13:00,67.7,58.0,29.79,South,174,2.0,-999.0,71,-99.99,,,0.00,weatherlink.com 1.10,2013-04-09 03:13:00,
2013-04-08 22:28:00,67.4,58.0,29.79,South,173,8.0,-999.0,72,-99.99,,,0.00,weatherlink.com 1.10,2013-04-09 03:28:00,
2013-04-08 22:43:00,67.3,58.0,29.78,South,177,7.0,-999.0,72,-99.99,,,0.00,weatherlink.com 1.10,2013-04-09 03:43:00,
2013-04-08 22:58:00,67.0,58.0,29.79,South,174,11.0,-999.0,72,-99.99,,,0.00,weatherlink.com 1.10,2013-04-09 03:58:00,
2013-04-08 23:13:00,66.5,57.0,29.78,South,186,9.0,-999.0,72,-99.99,,,0.00,weatherlink.com 1.10,2013-04-09 04:13:00,
2013-04-08 23:28:00,65.8,57.0,29.78,SSW,205,15.0,-999.0,73,-99.99,,,0.00,weatherlink.com 1.10,2013-04-09 04:28:00,
2013-04-08 23:43:00,65.3,57.0,29.78,SW,225,6.0,-999.0,74,-99.99,,,0.00,weatherlink.com 1.10,2013-04-09 04:43:00,
2013-04-08 23:58:00,65.3,57.0,29.77,South,173,9.0,-999.0,75,-99.99,,,0.00,weatherlink.com 1.10,2013-04-09 04:58:00,